User: anonymous
Location: Unspecified
(0.0000°N, 0.0000°E)
Time: 22:58:31
(UTC+02:00)
Language:

Orbus 21S - Orbit

View from above orbital plane
View from above orbital plane
View from above satellite
View from above satellite

Ground track
Ground track

The orbit data is extracted from the following two-line orbital elements,

1 20669U 90056C   14106.79093985  .00002395  00000-0  86310-3 0  2820
2 20669 023.9506 207.9263 7147662 275.0240 022.9044 02.43960443198893
Epoch (UTC): 16 April 2014 18:58:57
Eccentricity: 0.7147662
inclination: 23.9506°
perigee height: 270 km
apogee height: 33591 km
right ascension of ascending node: 207.9263°
argument of perigee: 275.0240°
revolutions per day: 2.43960443
mean anomaly at epoch: 22.9044°
orbit number at epoch: 19889

The dashed part of the orbit path shows where the satellite is in the earth's shadow,  

DLR